Location: Beemte
(52.2555°N, 5.9895°E)
Time: 10:50:32
(UTC+00:00)

Cosmos 1464 Rocket - Pass Details

Date: 15 May 2026
Orbit: 952 x 1000 km, 82.9° (Epoch: 8 June)

Event Time Altitude Azimuth Distance (km) Brightness Sun altitude
Exits shadow 21:18:41 10° 183° (S) 2,645 5.8 -13.0°
Maximum altitude 21:24:43 81° 97° (E) 978 3.9 -13.5°
Drops below altitude 10° 21:30:57 10° 12° (NNE) 2,721 7.1 -14.0°
Sets 21:33:29 0° 11° (NNE) 3,679 7.8 -14.2°
